Погода в Баташюрте

Россия / Республика Дагестан     43°18′36″N   46°30′28″E
темп.,
°C
ветер,
м/с
пор.,
м/с
влажн.,
%
обл.,
%
осадки,
мм/ч
давл.,
гПа
погр.,
м
19 апреля, пн
пн1900:00+12вюв1179100 0.0 101713
03:00+12юв1182100 0.0 101615
06:00+13юв128292 0.0 101638
09:00+20всв456011 0.0 1014595
12:00+23всв775011 0.0 10131018
15:00+21всв7850100 0.0 1013814
18:00+16всв476040 0.0 1014300
21:00+13в1266100 0.0 101431
20 апреля, вт
вт2000:00+13юв117191 0.0 101312
03:00+11ссз117690 0.0 101311
06:00+12в237999 0.0 101196
09:00+21в5653100 0.0 1008440
12:00+27в773833 0.0 1005567
15:00+27в71040100 0.0 1003445
18:00+18всв4666100 0.0 1005152
21:00+16вюв1271100 0.0 100624
21 апреля, ср
ср2100:00+14з51478100 0.0 1009361
03:00+15з8127664 0.0 1013714
06:00+14з81263100 0.0 1015887
09:00+16зсз8953100 0.0 10161011
12:00+18сз774919 0.1 10171313
15:00+17сз5651100 0.1 10171300
18:00+13зсз4683100 1.0 1019349
21:00+12зюз358572 1.8 1021156
22 апреля, чт
чт2200:00+11зюз228748 0.1 102125
03:00+12з228460 0.1 102144
06:00+11зсз128197 0.0 102195
09:00+15с226012 0.0 1021814
12:00+16с445986 0.0 10221213
15:00+13сз4573100 0.1 1023697
18:00+12зсз2377100 0.1 1024298
21:00+12з1278100 0.1 102496
23 апреля, пт
пт2300:00+11сз2382100 0.0 1023125
03:00+10з2489100 0.1 1023239
06:00+10з2495100 0.5 1023235
09:00+11зсз3588100 1.9 1024410
12:00+12зсз3481100 0.1 1024503
15:00+16з235930 0.1 1022942
18:00+14ссв236916 0.0 102254
21:00+10ююв228299 0.0 102211